QPF
0.00 0.00 0.00 0.00 0.01 0.02 0.02 0.01 0.00 0.01 0.02 0.02 0.01 0.01 0.00 0.00 0.00 0.01 0.00 0.00 0.00 0.00 0.00 0.01 0.01 0.00 0.00 0.01 0.01 0.01 0.01 0.01 0.02 0.03 0.03 0.04 0.08 0.09 0.10 0.11 0.11 0.11 0.11 0.10
0.00 0.01 0.00 0.00 0.00 0.00 0.02 0.01 0.01 0.01 0.01 0.01 0.01 0.01 0.01 0.00 0.01 0.00 0.00 0.00 0.00 0.00 0.00 0.00 0.01 0.00 0.00 0.01 0.01 0.01 0.01 0.01 0.02 0.03 0.03 0.03 0.06 0.07 0.09 0.07 0.09 0.10 0.09 0.06
0.01 0.01 0.00 0.00 0.00 0.00 0.00 0.01 0.01 0.01 0.01 0.01 0.00 0.01 0.01 0.01 0.01 0.00 0.00 0.00 0.00 0.00 0.00 0.00 0.00 0.00 0.00 0.00 0.00 0.01 0.01 0.01 0.01 0.02 0.02 0.03 0.04 0.04 0.05 0.05 0.08 0.08 0.06 0.03
0.00 0.00 0.00 0.00 0.00 0.00 0.00 0.00 0.00 0.00 0.00 0.01 0.01 0.01 0.01 0.02 0.04 0.01 0.00 0.00 0.00 0.00 0.00 0.00 0.00 0.00 0.00 0.00 0.00 0.01 0.01 0.01 0.01 0.02 0.02 0.03 0.02 0.03 0.04 0.04 0.05 0.06 0.05 0.03
0.00 0.00 0.00 0.00 0.00 0.00 0.00 0.00 0.00 0.00 0.00 0.01 0.00 0.01 0.01 0.03 0.06 0.01 0.00 0.00 0.00 0.00 0.00 0.00 0.00 0.00 0.00 0.00 0.00 0.01 0.01 0.02 0.01 0.01 0.02 0.03 0.03 0.03 0.03 0.02 0.03 0.04 0.04 0.04
0.00 0.00 0.00 0.00 0.00 0.00 0.00 0.00 0.00 0.00 0.01 0.02 0.01 0.01 0.01 0.01 0.01 0.01 0.00 0.00 0.00 0.00 0.00 0.00 0.00 0.00 0.00 0.00 0.00 0.00 0.01 0.01 0.01 0.01 0.01 0.03 0.02 0.03 0.03 0.03 0.03 0.03 0.05 0.06
0.01 0.00 0.00 0.00 0.00 0.00 0.00 0.01 0.03 0.03 0.02 0.01 0.01 0.00 0.01 0.02 0.00 0.00 0.00 0.00 0.00 0.01 0.01 0.00 0.00 0.00 0.00 0.00 0.01 0.01 0.01 0.01 0.01 0.01 0.01 0.01 0.02 0.02 0.03 0.03 0.03 0.04 0.06 0.05
0.02 0.02 0.01 0.00 0.00 0.00 0.00 0.00 0.03 0.05 0.03 0.01 0.01 0.01 0.02 0.01 0.00 0.00 0.00 0.00 0.00 0.01 0.01 0.00 0.00 0.00 0.00 0.00 0.01 0.01 0.01 0.01 0.01 0.00 0.01 0.01 0.01 0.02 0.02 0.03 0.02 0.04 0.05 0.06
0.02 0.01 0.01 0.01 0.00 0.00 0.00 0.00 0.01 0.02 0.02 0.02 0.02 0.03 0.04 0.01 0.00 0.00 0.00 0.00 0.00 0.00 0.00 0.00 0.00 0.00 0.00 0.00 0.01 0.01 0.01 0.01 0.01 0.00 0.01 0.01 0.01 0.01 0.02 0.02 0.02 0.03 0.06 0.08
0.01 0.01 0.00 0.00 0.00 0.00 0.00 0.00 0.00 0.01 0.03 0.03 0.04 0.04 0.04 0.01 0.01 0.00 0.01 0.00 0.00 0.00 0.00 0.00 0.00 0.00 0.00 0.00 0.01 0.01 0.01 0.01 0.01 0.01 0.01 0.01 0.01 0.02 0.02 0.02 0.02 0.02 0.04 0.08
0.00 0.01 0.00 0.00 0.00 0.00 0.00 0.00 0.00 0.00 0.01 0.02 0.03 0.05 0.02 0.01 0.01 0.00 0.00 0.00 0.00 0.00 0.00 0.00 0.00 0.00 0.00 0.01 0.01 0.02 0.01 0.01 0.01 0.01 0.01 0.01 0.01 0.02 0.02 0.03 0.02 0.02 0.03 0.05
0.01 0.01 0.00 0.00 0.00 0.00 0.00 0.00 0.00 0.01 0.01 0.01 0.02 0.04 0.04 0.02 0.01 0.00 0.00 0.00 0.00 0.00 0.00 0.00 0.00 0.00 0.00 0.01 0.02 0.02 0.02 0.01 0.01 0.01 0.01 0.01 0.01 0.01 0.02 0.02 0.02 0.02 0.03 0.04
0.02 0.01 0.01 0.01 0.00 0.00 0.00 0.00 0.00 0.00 0.01 0.02 0.02 0.03 0.04 0.04 0.02 0.00 0.00 0.00 0.00 0.00 0.00 0.00 0.00 0.00 0.00 0.01 0.01 0.02 0.02 0.02 0.01 0.01 0.01 0.01 0.01 0.02 0.02 0.03 0.02 0.02 0.02 0.04
0.00 0.00 0.01 0.02 0.01 0.01 0.00 0.00 0.00 0.00 0.01 0.01 0.01 0.02 0.04 0.04 0.02 0.01 0.00 0.00 0.00 0.00 0.00 0.00 0.00 0.00 0.00 0.00 0.00 0.01 0.02 0.04 0.04 0.04 0.03 0.02 0.02 0.02 0.02 0.02 0.02 0.03 0.03 0.03
0.00 0.00 0.00 0.00 0.01 0.01 0.00 0.00 0.00 0.00 0.01 0.01 0.00 0.01 0.01 0.02 0.01 0.00 0.00 0.00 0.00 0.00 0.00 0.00 0.00 0.00 0.00 0.00 0.00 0.00 0.02 0.03 0.04 0.04 0.03 0.02 0.02 0.02 0.02 0.02 0.04 0.04 0.05 0.04
0.00 0.00 0.00 0.00 0.01 0.01 0.00 0.00 0.00 0.00 0.00 0.00 0.00 0.00 0.00 0.00 0.01 0.01 0.00 0.00 0.00 0.00 0.00 0.00 0.00 0.00 0.00 0.00 0.00 0.01 0.01 0.02 0.03 0.03 0.03 0.02 0.02 0.03 0.03 0.04 0.04 0.05 0.05 0.06
0.00 0.00 0.00 0.00 0.01 0.02 0.01 0.00 0.00 0.00 0.00 0.00 0.00 0.00 0.00 0.00 0.00 0.00 0.00 0.01 0.01 0.01 0.01 0.00 0.00 0.00 0.00 0.01 0.01 0.02 0.02 0.02 0.02 0.03 0.03 0.04 0.03 0.04 0.05 0.04 0.05 0.04 0.04 0.04
0.00 0.00 0.01 0.00 0.01 0.02 0.01 0.00 0.00 0.00 0.00 0.00 0.00 0.00 0.00 0.00 0.00 0.00 0.00 0.00 0.01 0.01 0.01 0.01 0.01 0.01 0.01 0.01 0.01 0.01 0.01 0.01 0.02 0.03 0.03 0.03 0.03 0.03 0.03 0.03 0.03 0.04 0.04 0.03
0.00 0.00 0.01 0.01 0.01 0.01 0.01 0.01 0.01 0.01 0.01 0.01 0.01 0.01 0.01 0.01 0.01 0.01 0.01 0.01 0.00 0.00 0.00 0.00 0.01 0.01 0.01 0.01 0.01 0.01 0.00 0.01 0.01 0.02 0.03 0.03 0.03 0.03 0.03 0.03 0.04 0.03 0.03 0.03
0.00 0.00 0.01 0.01 0.02 0.03 0.03 0.01 0.01 0.01 0.02 0.02 0.01 0.01 0.01 0.02 0.03 0.03 0.01 0.01 0.01 0.00 0.00 0.00 0.01 0.01 0.01 0.01 0.01 0.01 0.00 0.01 0.01 0.01 0.01 0.02 0.03 0.04 0.04 0.04 0.05 0.04 0.03 0.03
0.01 0.01 0.01 0.02 0.02 0.03 0.01 0.01 0.02 0.06 0.08 0.02 0.01 0.01 0.02 0.02 0.03 0.03 0.02 0.01 0.01 0.01 0.01 0.02 0.03 0.02 0.02 0.02 0.02 0.02 0.01 0.01 0.01 0.01 0.02 0.02 0.02 0.02 0.03 0.03 0.03 0.04 0.03 0.03
0.02 0.03 0.03 0.04 0.05 0.07 0.04 0.03 0.06 0.07 0.04 0.01 0.03 0.04 0.03 0.02 0.01 0.02 0.02 0.02 0.03 0.05 0.08 0.10 0.06 0.03 0.03 0.03 0.02 0.02 0.02 0.03 0.03 0.02 0.02 0.02 0.03 0.02 0.02 0.02 0.02 0.02 0.02 0.02
0.03 0.04 0.04 0.05 0.07 0.08 0.06 0.05 0.04 0.03 0.02 0.02 0.02 0.04 0.04 0.04 0.04 0.02 0.03 0.04 0.05 0.06 0.06 0.04 0.03 0.03 0.03 0.03 0.02 0.03 0.04 0.04 0.04 0.04 0.04 0.04 0.04 0.03 0.02 0.02 0.02 0.02 0.02 0.02
0.03 0.04 0.05 0.05 0.05 0.04 0.03 0.02 0.02 0.02 0.02 0.02 0.02 0.02 0.03 0.06 0.07 0.05 0.03 0.03 0.02 0.02 0.03 0.03 0.03 0.03 0.03 0.05 0.06 0.05 0.06 0.06 0.06 0.06 0.06 0.06 0.05 0.05 0.04 0.03 0.02 0.02 0.02 0.02
0.04 0.04 0.03 0.04 0.03 0.02 0.02 0.01 0.02 0.02 0.02 0.03 0.02 0.02 0.02 0.02 0.04 0.05 0.05 0.04 0.03 0.03 0.05 0.05 0.05 0.04 0.06 0.09 0.09 0.09 0.10 0.08 0.09 0.08 0.07 0.07 0.06 0.06 0.05 0.05 0.04 0.03 0.03 0.02
0.03 0.04 0.03 0.03 0.03 0.03 0.03 0.01 0.01 0.02 0.02 0.03 0.01 0.01 0.01 0.01 0.02 0.02 0.03 0.04 0.04 0.04 0.04 0.05 0.05 0.06 0.08 0.08 0.08 0.09 0.09 0.08 0.08 0.07 0.05 0.05 0.05 0.05 0.05 0.05 0.06 0.03 0.02 0.02
MSLP
1003.32 1003.86 1004.16 1004.26 1004.23 1004.15 1004.11 1004.17 1004.32 1004.54 1004.75 1004.88 1004.84 1004.61 1004.17 1003.57 1002.90 1002.25 1001.71 1001.37 1001.25 1001.36 1001.68 1002.15 1002.70 1003.29 1003.89 1004.49 1005.07 1005.66 1006.27 1006.87 1007.47 1008.04 1008.55 1008.98 1009.32 1009.57 1009.77 1009.95 1010.14 1010.40 1010.72 1011.12
1003.75 1004.13 1004.28 1004.27 1004.18 1004.10 1004.12 1004.26 1004.51 1004.80 1005.05 1005.15 1005.03 1004.66 1004.06 1003.27 1002.41 1001.60 1000.93 1000.49 1000.31 1000.39 1000.69 1001.16 1001.72 1002.34 1002.97 1003.60 1004.25 1004.92 1005.61 1006.32 1007.01 1007.66 1008.22 1008.68 1009.02 1009.25 1009.40 1009.53 1009.70 1009.92 1010.25 1010.67
1003.90 1004.11 1004.13 1004.03 1003.92 1003.90 1004.01 1004.27 1004.63 1005.01 1005.29 1005.37 1005.16 1004.65 1003.86 1002.89 1001.86 1000.89 1000.11 999.59 999.37 999.43 999.73 1000.20 1000.78 1001.40 1002.06 1002.72 1003.42 1004.15 1004.92 1005.71 1006.49 1007.21 1007.83 1008.32 1008.67 1008.88 1009.00 1009.10 1009.22 1009.43 1009.75 1010.19
1003.73 1003.81 1003.72 1003.59 1003.51 1003.58 1003.83 1004.24 1004.75 1005.22 1005.54 1005.59 1005.29 1004.64 1003.69 1002.54 1001.34 1000.24 999.37 998.79 998.54 998.59 998.89 999.37 999.94 1000.57 1001.22 1001.90 1002.61 1003.37 1004.19 1005.05 1005.90 1006.69 1007.37 1007.91 1008.27 1008.49 1008.60 1008.67 1008.78 1008.97 1009.28 1009.73
1003.32 1003.27 1003.13 1003.01 1003.01 1003.21 1003.62 1004.22 1004.87 1005.46 1005.82 1005.84 1005.47 1004.69 1003.59 1002.29 1000.95 999.75 998.80 998.18 997.92 997.97 998.27 998.74 999.30 999.89 1000.51 1001.15 1001.84 1002.60 1003.43 1004.32 1005.22 1006.07 1006.82 1007.41 1007.83 1008.08 1008.20 1008.28 1008.38 1008.57 1008.88 1009.32
1002.73 1002.61 1002.44 1002.37 1002.48 1002.84 1003.44 1004.21 1005.02 1005.70 1006.11 1006.12 1005.68 1004.80 1003.58 1002.17 1000.75 999.48 998.49 997.85 997.58 997.63 997.92 998.36 998.88 999.41 999.95 1000.51 1001.12 1001.82 1002.62 1003.51 1004.43 1005.33 1006.15 1006.81 1007.30 1007.62 1007.80 1007.91 1008.03 1008.22 1008.52 1008.95
1002.09 1001.92 1001.77 1001.76 1001.99 1002.50 1003.27 1004.20 1005.13 1005.90 1006.35 1006.35 1005.87 1004.94 1003.66 1002.19 1000.72 999.43 998.45 997.82 997.56 997.61 997.88 998.27 998.70 999.12 999.54 999.96 1000.45 1001.04 1001.76 1002.60 1003.52 1004.45 1005.33 1006.08 1006.66 1007.08 1007.34 1007.52 1007.68 1007.89 1008.19 1008.59
1001.49 1001.30 1001.18 1001.25 1001.59 1002.22 1003.11 1004.15 1005.17 1006.00 1006.47 1006.47 1005.98 1005.03 1003.74 1002.28 1000.84 999.60 998.65 998.07 997.83 997.88 998.11 998.43 998.75 999.03 999.28 999.52 999.83 1000.26 1000.86 1001.61 1002.49 1003.43 1004.36 1005.20 1005.90 1006.43 1006.80 1007.07 1007.29 1007.53 1007.83 1008.21
1001.00 1000.83 1000.75 1000.88 1001.29 1002.00 1002.96 1004.04 1005.09 1005.93 1006.40 1006.42 1005.94 1005.02 1003.79 1002.40 1001.06 999.90 999.05 998.54 998.35 998.40 998.59 998.81 999.00 999.11 999.16 999.19 999.30 999.53 999.96 1000.60 1001.41 1002.33 1003.30 1004.21 1005.01 1005.66 1006.16 1006.53 1006.83 1007.11 1007.42 1007.78
1000.67 1000.53 1000.50 1000.67 1001.12 1001.85 1002.80 1003.86 1004.88 1005.69 1006.14 1006.16 1005.72 1004.88 1003.76 1002.51 1001.31 1000.30 999.58 999.16 999.02 999.08 999.22 999.35 999.40 999.33 999.17 998.99 998.87 998.90 999.15 999.65 1000.36 1001.25 1002.22 1003.19 1004.08 1004.84 1005.45 1005.92 1006.30 1006.64 1006.96 1007.31
1000.49 1000.42 1000.44 1000.64 1001.09 1001.78 1002.66 1003.64 1004.57 1005.31 1005.72 1005.75 1005.36 1004.63 1003.66 1002.59 1001.58 1000.75 1000.17 999.87 999.78 999.84 999.94 999.98 999.89 999.66 999.32 998.94 998.62 998.46 998.53 998.87 999.48 1000.30 1001.24 1002.24 1003.19 1004.03 1004.74 1005.31 1005.76 1006.15 1006.50 1006.86
1000.46 1000.48 1000.55 1000.78 1001.20 1001.82 1002.60 1003.45 1004.26 1004.89 1005.25 1005.28 1004.96 1004.35 1003.55 1002.67 1001.86 1001.21 1000.78 1000.58 1000.55 1000.61 1000.66 1000.61 1000.41 1000.05 999.57 999.04 998.56 998.24 998.17 998.38 998.87 999.60 1000.50 1001.48 1002.45 1003.34 1004.11 1004.75 1005.28 1005.72 1006.10 1006.47
1000.56 1000.69 1000.84 1001.09 1001.47 1002.00 1002.66 1003.37 1004.03 1004.56 1004.86 1004.88 1004.63 1004.14 1003.50 1002.81 1002.18 1001.69 1001.38 1001.25 1001.25 1001.29 1001.30 1001.19 1000.91 1000.47 999.90 999.28 998.71 998.29 998.11 998.22 998.61 999.25 1000.07 1001.01 1001.96 1002.86 1003.66 1004.34 1004.92 1005.40 1005.82 1006.21
1000.78 1001.03 1001.28 1001.56 1001.92 1002.37 1002.90 1003.47 1004.00 1004.42 1004.66 1004.68 1004.49 1004.10 1003.60 1003.06 1002.57 1002.19 1001.96 1001.85 1001.84 1001.85 1001.81 1001.65 1001.33 1000.85 1000.26 999.62 999.03 998.58 998.35 998.39 998.70 999.26 1000.00 1000.86 1001.76 1002.63 1003.42 1004.12 1004.72 1005.23 1005.69 1006.10
1001.10 1001.49 1001.84 1002.17 1002.52 1002.92 1003.36 1003.80 1004.22 1004.54 1004.73 1004.75 1004.60 1004.29 1003.89 1003.45 1003.04 1002.71 1002.49 1002.36 1002.30 1002.25 1002.15 1001.94 1001.61 1001.15 1000.59 1000.01 999.47 999.05 998.83 998.85 999.11 999.59 1000.25 1001.02 1001.84 1002.65 1003.41 1004.09 1004.69 1005.21 1005.69 1006.13
1001.51 1002.04 1002.49 1002.89 1003.26 1003.63 1004.00 1004.36 1004.69 1004.95 1005.10 1005.11 1004.98 1004.73 1004.38 1003.98 1003.59 1003.25 1002.97 1002.77 1002.61 1002.47 1002.29 1002.05 1001.72 1001.31 1000.84 1000.36 999.93 999.60 999.45 999.49 999.74 1000.16 1000.74 1001.42 1002.15 1002.88 1003.57 1004.21 1004.79 1005.31 1005.79 1006.24
1001.99 1002.64 1003.20 1003.66 1004.07 1004.43 1004.77 1005.09 1005.36 1005.57 1005.70 1005.70 1005.59 1005.35 1005.01 1004.61 1004.19 1003.78 1003.40 1003.07 1002.79 1002.53 1002.27 1001.99 1001.68 1001.34 1000.98 1000.63 1000.35 1000.16 1000.11 1000.21 1000.46 1000.86 1001.37 1001.96 1002.59 1003.23 1003.84 1004.42 1004.96 1005.46 1005.93 1006.37
1002.51 1003.26 1003.89 1004.42 1004.87 1005.25 1005.59 1005.88 1006.13 1006.32 1006.43 1006.43 1006.32 1006.08 1005.73 1005.29 1004.80 1004.28 1003.77 1003.30 1002.87 1002.48 1002.13 1001.81 1001.52 1001.25 1001.01 1000.82 1000.69 1000.65 1000.72 1000.90 1001.18 1001.57 1002.03 1002.54 1003.08 1003.63 1004.16 1004.67 1005.15 1005.61 1006.06 1006.48
1003.02 1003.82 1004.52 1005.10 1005.58 1005.99 1006.33 1006.63 1006.87 1007.06 1007.16 1007.17 1007.05 1006.81 1006.43 1005.94 1005.37 1004.75 1004.11 1003.49 1002.91 1002.40 1001.97 1001.61 1001.33 1001.13 1001.00 1000.95 1000.97 1001.07 1001.26 1001.52 1001.85 1002.23 1002.65 1003.10 1003.56 1004.01 1004.46 1004.90 1005.32 1005.74 1006.14 1006.53
1003.48 1004.30 1005.03 1005.64 1006.15 1006.58 1006.94 1007.24 1007.49 1007.68 1007.80 1007.81 1007.70 1007.45 1007.05 1006.53 1005.89 1005.18 1004.44 1003.70 1003.01 1002.40 1001.89 1001.50 1001.23 1001.08 1001.04 1001.09 1001.24 1001.46 1001.74 1002.07 1002.43 1002.82 1003.21 1003.60 1003.99 1004.37 1004.74 1005.11 1005.48 1005.84 1006.20 1006.55
1003.85 1004.67 1005.40 1006.02 1006.55 1006.99 1007.36 1007.67 1007.93 1008.13 1008.26 1008.28 1008.19 1007.95 1007.56 1007.02 1006.36 1005.61 1004.80 1004.00 1003.23 1002.56 1002.00 1001.59 1001.32 1001.21 1001.22 1001.35 1001.58 1001.88 1002.23 1002.60 1002.98 1003.36 1003.72 1004.07 1004.40 1004.71 1005.02 1005.32 1005.63 1005.94 1006.25 1006.56
1004.13 1004.92 1005.64 1006.26 1006.78 1007.22 1007.60 1007.92 1008.18 1008.40 1008.54 1008.59 1008.52 1008.31 1007.95 1007.44 1006.79 1006.05 1005.24 1004.42 1003.65 1002.95 1002.38 1001.96 1001.70 1001.60 1001.64 1001.81 1002.07 1002.41 1002.78 1003.16 1003.54 1003.90 1004.23 1004.53 1004.80 1005.06 1005.31 1005.56 1005.81 1006.07 1006.34 1006.61
1004.32 1005.09 1005.78 1006.38 1006.89 1007.33 1007.70 1008.02 1008.29 1008.51 1008.67 1008.74 1008.71 1008.55 1008.25 1007.80 1007.22 1006.54 1005.79 1005.01 1004.27 1003.60 1003.05 1002.64 1002.39 1002.29 1002.34 1002.50 1002.76 1003.09 1003.44 1003.80 1004.15 1004.47 1004.75 1005.01 1005.23 1005.44 1005.64 1005.83 1006.04 1006.25 1006.48 1006.71
1004.48 1005.21 1005.88 1006.46 1006.95 1007.37 1007.73 1008.05 1008.31 1008.54 1008.71 1008.82 1008.83 1008.73 1008.50 1008.15 1007.67 1007.09 1006.44 1005.76 1005.10 1004.50 1004.00 1003.62 1003.37 1003.27 1003.30 1003.43 1003.65 1003.92 1004.23 1004.53 1004.82 1005.09 1005.32 1005.52 1005.69 1005.85 1005.99 1006.14 1006.30 1006.48 1006.67 1006.87
1004.64 1005.34 1005.98 1006.53 1007.01 1007.41 1007.76 1008.06 1008.32 1008.55 1008.73 1008.86 1008.92 1008.89 1008.75 1008.50 1008.15 1007.70 1007.18 1006.63 1006.08 1005.58 1005.14 1004.80 1004.58 1004.46 1004.45 1004.53 1004.69 1004.89 1005.11 1005.33 1005.55 1005.74 1005.90 1006.04 1006.15 1006.26 1006.36 1006.47 1006.58 1006.72 1006.87 1007.04
1004.85 1005.52 1006.12 1006.65 1007.10 1007.49 1007.82 1008.11 1008.36 1008.59 1008.78 1008.94 1009.04 1009.07 1009.02 1008.88 1008.65 1008.34 1007.96 1007.55 1007.13 1006.73 1006.38 1006.09 1005.88 1005.75 1005.71 1005.72 1005.79 1005.90 1006.03 1006.16 1006.28 1006.38 1006.47 1006.53 1006.59 1006.64 1006.70 1006.76 1006.84 1006.94 1007.06 1007.19
Thickness
5855 5840 5831 5840 5846 5846 5846 5842 5838 5845 5861 5851 5842 5840 5843 5850 5846 5842 5838 5835 5831 5828 5831 5830 5827 5825 5820 5815 5810 5806 5802 5800 5798 5795 5792 5789 5788 5789 5788 5787 5785 5784 5782 5780
5840 5834 5849 5858 5858 5854 5845 5836 5836 5847 5861 5852 5843 5842 5848 5849 5848 5849 5843 5838 5835 5831 5830 5828 5826 5824 5820 5815 5811 5808 5804 5802 5800 5797 5795 5793 5791 5789 5788 5787 5786 5784 5782 5780
5830 5845 5863 5857 5849 5844 5842 5838 5839 5841 5851 5856 5844 5832 5838 5850 5854 5854 5852 5848 5843 5836 5831 5828 5826 5824 5821 5817 5813 5811 5806 5804 5801 5799 5797 5794 5791 5789 5787 5784 5783 5783 5782 5780
5839 5856 5859 5850 5845 5846 5835 5853 5851 5846 5836 5830 5836 5811 5828 5841 5843 5846 5848 5848 5845 5842 5837 5831 5828 5825 5823 5821 5818 5814 5809 5805 5803 5800 5796 5792 5787 5784 5785 5785 5784 5783 5782 5780
5838 5852 5850 5843 5848 5853 5848 5860 5853 5847 5838 5828 5834 5819 5822 5842 5836 5842 5848 5849 5848 5844 5841 5835 5831 5828 5828 5825 5821 5816 5810 5806 5804 5801 5798 5793 5790 5789 5788 5787 5784 5782 5781 5779
5847 5863 5860 5855 5862 5861 5859 5852 5846 5844 5834 5806 5824 5815 5812 5834 5841 5846 5850 5851 5849 5847 5844 5839 5836 5832 5828 5827 5823 5818 5811 5806 5805 5802 5799 5795 5791 5790 5787 5785 5782 5781 5780 5779
5830 5846 5861 5864 5847 5852 5848 5826 5803 5796 5797 5802 5832 5820 5821 5846 5858 5855 5851 5851 5850 5849 5845 5839 5834 5829 5827 5825 5823 5819 5812 5807 5805 5802 5799 5796 5793 5790 5787 5785 5783 5781 5779 5778
5808 5815 5844 5855 5844 5835 5838 5827 5795 5778 5786 5807 5824 5814 5832 5859 5864 5864 5859 5855 5851 5848 5845 5841 5837 5832 5828 5826 5823 5819 5812 5808 5806 5803 5799 5797 5795 5792 5789 5787 5785 5783 5781 5779
5809 5813 5848 5856 5857 5847 5829 5827 5832 5812 5805 5795 5803 5818 5833 5854 5854 5854 5852 5850 5846 5845 5844 5841 5838 5834 5830 5826 5824 5820 5814 5809 5806 5803 5800 5797 5795 5793 5790 5788 5786 5784 5782 5781
5818 5808 5834 5849 5852 5850 5844 5836 5824 5806 5781 5775 5788 5801 5809 5824 5835 5843 5844 5842 5842 5843 5843 5840 5838 5835 5832 5828 5825 5822 5816 5810 5806 5803 5800 5798 5795 5793 5790 5787 5784 5782 5781 5779
5819 5803 5817 5830 5824 5824 5829 5824 5820 5813 5805 5785 5773 5791 5833 5832 5836 5837 5841 5842 5840 5840 5840 5838 5836 5834 5831 5828 5824 5820 5816 5811 5806 5803 5800 5798 5795 5792 5789 5785 5783 5781 5779 5777
5811 5803 5798 5815 5838 5843 5834 5826 5820 5797 5791 5796 5786 5790 5840 5839 5840 5840 5839 5839 5840 5839 5838 5836 5834 5831 5827 5824 5822 5819 5815 5810 5806 5803 5800 5797 5794 5791 5787 5784 5782 5780 5777 5774
5799 5787 5774 5786 5808 5824 5822 5825 5824 5816 5803 5792 5784 5793 5836 5838 5838 5838 5836 5835 5834 5833 5832 5830 5827 5824 5822 5820 5818 5816 5813 5809 5807 5803 5798 5795 5791 5788 5785 5782 5780 5777 5774 5771
5798 5782 5773 5769 5786 5801 5804 5813 5819 5809 5791 5790 5796 5800 5816 5822 5824 5828 5830 5830 5828 5826 5823 5821 5819 5817 5817 5815 5814 5812 5809 5807 5804 5800 5795 5791 5788 5785 5783 5780 5777 5774 5771 5768
5793 5777 5779 5787 5799 5804 5803 5805 5810 5806 5803 5796 5801 5804 5810 5816 5819 5821 5824 5823 5819 5816 5815 5814 5812 5811 5811 5810 5810 5808 5806 5803 5800 5796 5792 5789 5786 5783 5779 5776 5773 5770 5767 5765
5782 5771 5772 5774 5790 5794 5794 5802 5804 5805 5807 5805 5803 5800 5817 5817 5817 5815 5814 5813 5809 5808 5809 5808 5807 5806 5805 5805 5804 5803 5801 5799 5796 5792 5789 5786 5782 5779 5775 5772 5768 5765 5762 5760
5768 5760 5755 5758 5777 5776 5769 5790 5797 5800 5807 5804 5792 5799 5810 5805 5805 5805 5806 5806 5804 5803 5802 5801 5801 5800 5800 5801 5800 5797 5796 5795 5791 5787 5784 5781 5777 5774 5770 5767 5763 5760 5757 5755
5755 5750 5749 5751 5754 5736 5770 5802 5802 5798 5800 5805 5801 5802 5804 5801 5802 5804 5804 5800 5798 5797 5796 5796 5796 5795 5796 5796 5796 5795 5792 5789 5785 5781 5778 5775 5772 5769 5766 5762 5757 5755 5753 5750
5763 5748 5741 5743 5739 5746 5770 5786 5790 5784 5783 5797 5794 5794 5796 5799 5795 5790 5795 5795 5793 5792 5791 5790 5790 5790 5789 5789 5789 5788 5785 5781 5778 5774 5772 5770 5767 5764 5760 5756 5753 5751 5749 5746
5757 5750 5738 5737 5728 5728 5753 5781 5794 5784 5765 5785 5787 5784 5784 5782 5768 5769 5782 5786 5786 5786 5785 5784 5784 5783 5780 5781 5782 5779 5776 5773 5771 5769 5767 5765 5763 5759 5755 5752 5749 5747 5744 5742
5731 5731 5727 5727 5727 5736 5760 5778 5779 5750 5750 5776 5780 5777 5774 5769 5768 5771 5775 5775 5775 5775 5776 5776 5775 5773 5772 5773 5773 5769 5768 5766 5766 5765 5762 5759 5757 5754 5751 5747 5744 5741 5738 5736
5722 5721 5721 5723 5717 5721 5757 5763 5750 5748 5764 5768 5769 5769 5767 5765 5767 5766 5764 5764 5764 5763 5764 5765 5764 5763 5764 5764 5762 5759 5757 5759 5759 5757 5754 5752 5750 5748 5746 5741 5738 5735 5732 5729
5723 5725 5726 5722 5721 5737 5748 5748 5752 5757 5755 5757 5759 5761 5762 5758 5755 5755 5754 5754 5753 5753 5753 5755 5753 5752 5752 5752 5752 5749 5749 5751 5750 5747 5745 5744 5743 5741 5739 5735 5731 5728 5725 5723
5722 5730 5724 5718 5725 5735 5739 5742 5745 5749 5749 5752 5753 5754 5754 5750 5747 5745 5744 5743 5742 5743 5743 5744 5742 5740 5739 5740 5741 5741 5742 5743 5741 5738 5736 5736 5734 5732 5729 5727 5725 5721 5718 5716
5713 5718 5715 5712 5721 5727 5730 5734 5737 5739 5742 5743 5745 5746 5743 5741 5737 5736 5734 5733 5732 5732 5732 5732 5730 5729 5729 5730 5730 5731 5732 5732 5731 5729 5728 5727 5726 5724 5721 5719 5717 5715 5712 5710
5703 5703 5703 5703 5714 5715 5717 5727 5731 5729 5730 5732 5732 5732 5733 5733 5729 5728 5725 5724 5724 5723 5723 5722 5720 5719 5719 5720 5720 5721 5722 5723 5721 5719 5719 5719 5719 5717 5716 5712 5709 5707 5706 5703